Location: Unspecified
(44.0704°N, 88.6889°W)
Time: 04:44:29
(UTC+02:00)

Okean 3 - Pass Details

Date: 08 October 2020
Orbit: 575 x 602 km, 82.5° (Epoch: 20 October)

Event Time Altitude Azimuth Distance (km) Brightness Sun altitude
Exits shadow 12:58:51 17° 281° (W) 1,517 4.9 -12.1°
Maximum altitude 12:59:23 17° 290° (WNW) 1,500 5.0 -12.0°
Drops below altitude 10° 13:02:15 10° 333° (NNW) 1,925 5.8 -11.4°
Sets 13:05:06 0° 353° (N) 2,826 6.9 -10.9°
